Weather History for Durant, OK

Change the Weather History Date:

Thursday, December 20, 2012

  Actual Average (KADM) Record (KADM)
Temperature  
Mean Temperature 42 °F -  
Max Temperature 50 °F 50 °F 75 °F (2004)
Min Temperature 35 °F 31 °F 23 °F (2012)
Degree Days  
Heating Degree Days 22    
Moisture  
Dew Point 18 °F    
Average Humidity 41    
Maximum Humidity 66    
Minimum Humidity 16    
Precipitation  
Precipitation 0.00 in - - ()
Sea Level Pressure  
Sea Level Pressure 30.20 in    
Wind  
Wind Speed 19 mph (NW)    
Max Wind Speed 31 mph    
Max Gust Speed 43 mph    
Visibility 10 miles    
Events      
Averages and records for this station are not official NWS values.
T = Trace of Precipitation, MM = Missing Value Source: NWS Daily Summary

Daily Weather History Graph

Daily Weather History Graph

Search for Another Location

Airport:

Trip Planner

Search our weather history database for the weather conditions in past years. The results will help you decide how hot, cold, wet, or windy it might be!

Date:

Astronomy

Dec. 20, 2012 Rise Set
Actual Time 7:26 AM CST 5:20 PM CST
Civil Twilight 6:58 AM CST 5:48 PM CST
Nautical Twilight 6:27 AM CST 6:19 PM CST
Astronomical Twilight 5:57 AM CST 6:49 PM CST
Moon 12:25 PM CST (12/20) 12:29 AM CST (12/20)
Length of Visible Light 10h 49m
Length of Day
9h 53m
First Quarter, 55% of the Moon is Illuminated
Dec 20
First Quarter
Dec 28
Full
Jan 4
Last Quarter
Jan 11
New
Jan 18
First Quarter

Hourly Weather History & Observations

Time (CST) Temp. Windchill Dew Point Humidity Pressure Visibility Wind Dir Wind Speed Gust Speed Precip Events Conditions
12:15 AM 46.4 °F 38.7 °F 30.2 °F 53% 29.78 in 10.0 mi WNW 20.7 mph 31.1 mph N/A   Clear
12:35 AM 44.6 °F 37.8 °F 30.2 °F 57% 29.81 in 10.0 mi West 15.0 mph 33.4 mph N/A   Clear
12:55 AM 44.6 °F 36.6 °F 30.2 °F 57% 29.81 in 10.0 mi West 19.6 mph 36.8 mph N/A   Clear
1:15 AM 42.8 °F 35.1 °F 32.0 °F 66% 29.82 in 10.0 mi WNW 16.1 mph 32.2 mph N/A   Clear
1:35 AM 42.8 °F 35.1 °F 32.0 °F 66% 29.85 in 10.0 mi WNW 16.1 mph 32.2 mph N/A   Clear
1:55 AM 42.8 °F 33.8 °F 32.0 °F 66% 29.86 in 10.0 mi WNW 21.9 mph 29.9 mph N/A   Clear
2:15 AM 41.0 °F 31.4 °F 30.2 °F 65% 29.89 in 10.0 mi WNW 21.9 mph 32.2 mph N/A   Clear
2:35 AM 41.0 °F 31.4 °F 30.2 °F 65% 29.91 in 10.0 mi WNW 21.9 mph 32.2 mph N/A   Clear
2:55 AM 41.0 °F 30.2 °F 28.4 °F 61% 29.94 in 10.0 mi WNW 27.6 mph 39.1 mph N/A   Scattered Clouds
3:15 AM 41.0 °F 31.9 °F 28.4 °F 61% 29.96 in 10.0 mi WNW 19.6 mph 35.7 mph N/A   Overcast
3:35 AM 41.0 °F 31.1 °F 28.4 °F 61% 29.97 in 10.0 mi NW 23.0 mph 35.7 mph N/A   Overcast
3:55 AM 41.0 °F 31.6 °F 28.4 °F 61% 29.98 in 10.0 mi NW 20.7 mph 28.8 mph N/A   Overcast
4:15 AM 41.0 °F 29.7 °F 26.6 °F 57% 29.99 in 10.0 mi NW 31.1 mph 36.8 mph N/A   Mostly Cloudy
4:35 AM 41.0 °F 30.2 °F 26.6 °F 57% 30.00 in 10.0 mi NW 27.6 mph 42.6 mph N/A   Scattered Clouds
4:55 AM 39.2 °F 28.3 °F 26.6 °F 61% 30.02 in 10.0 mi NW 25.3 mph 35.7 mph N/A   Clear
5:15 AM 39.2 °F 28.7 °F 26.6 °F 61% 30.04 in 10.0 mi NW 23.0 mph 33.4 mph N/A   Clear
5:35 AM 39.2 °F 29.0 °F 26.6 °F 61% 30.05 in 10.0 mi NW 21.9 mph 34.5 mph N/A   Clear
5:55 AM 39.2 °F 29.0 °F 26.6 °F 61% 30.08 in 10.0 mi NW 21.9 mph 32.2 mph N/A   Clear
6:15 AM 37.4 °F 26.4 °F 26.6 °F 65% 30.09 in 10.0 mi NW 23.0 mph 33.4 mph N/A   Clear
6:35 AM 37.4 °F 27.5 °F 26.6 °F 65% 30.10 in 10.0 mi NW 18.4 mph 25.3 mph N/A   Clear
6:55 AM 37.4 °F 27.5 °F 26.6 °F 65% 30.12 in 10.0 mi WNW 18.4 mph 25.3 mph N/A   Clear
7:15 AM 37.4 °F 27.8 °F 26.6 °F 65% 30.14 in 10.0 mi NW 17.3 mph 25.3 mph N/A   Clear
7:35 AM 37.4 °F 27.5 °F 26.6 °F 65% 30.15 in 10.0 mi NW 18.4 mph 26.5 mph N/A   Clear
7:55 AM 37.4 °F 26.1 °F 26.6 °F 65% 30.16 in 10.0 mi NW 24.2 mph 32.2 mph N/A   Clear
8:15 AM 37.4 °F 26.9 °F 26.6 °F 65% 30.17 in 10.0 mi NW 20.7 mph 27.6 mph N/A   Clear
8:35 AM 39.2 °F 29.0 °F 26.6 °F 61% 30.19 in 10.0 mi NW 21.9 mph 28.8 mph N/A   Clear
8:55 AM 39.2 °F 27.8 °F 24.8 °F 56% 30.20 in 10.0 mi NW 27.6 mph 32.2 mph N/A   Clear
9:15 AM 41.0 °F 30.9 °F 23.0 °F 49% 30.22 in 10.0 mi NNW 24.2 mph 35.7 mph N/A   Clear
9:35 AM 41.0 °F 30.9 °F 21.2 °F 45% 30.24 in 10.0 mi NW 24.2 mph 32.2 mph N/A   Clear
9:55 AM 41.0 °F 30.9 °F 17.6 °F 39% 30.25 in 10.0 mi NW 24.2 mph 31.1 mph N/A   Clear
10:15 AM 42.8 °F 32.7 °F 14.0 °F 31% 30.26 in 10.0 mi NW 27.6 mph 32.2 mph N/A   Clear
10:35 AM 42.8 °F 34.0 °F 14.0 °F 31% 30.27 in 10.0 mi NW 20.7 mph 32.2 mph N/A   Clear
10:55 AM 44.6 °F 35.7 °F 15.8 °F 31% 30.27 in 10.0 mi NNW 24.2 mph 36.8 mph N/A   Clear
11:15 AM 44.6 °F 35.7 °F 15.8 °F 31% 30.27 in 10.0 mi NW 24.2 mph 33.4 mph N/A   Clear
11:35 AM 44.6 °F 35.1 °F 14.0 °F 29% 30.27 in 10.0 mi NW 27.6 mph 33.4 mph N/A   Clear
11:55 AM 46.4 °F 37.5 °F 14.0 °F 27% 30.27 in 10.0 mi NNW 27.6 mph 33.4 mph N/A   Clear
12:15 PM 46.4 °F 39.2 °F 12.2 °F 25% 30.27 in 10.0 mi NNW 18.4 mph 29.9 mph N/A   Clear
12:35 PM 48.2 °F - 12.2 °F 24% 30.26 in 10.0 mi NNW 21.9 mph 32.2 mph N/A   Clear
12:55 PM 48.2 °F - 12.2 °F 24% 30.27 in 10.0 mi NW 23.0 mph 33.4 mph N/A   Clear
1:15 PM 50.0 °F - 10.4 °F 20% 30.27 in 10.0 mi NW 24.2 mph 34.5 mph N/A   Clear
1:35 PM 50.0 °F - 8.6 °F 19% 30.27 in 10.0 mi NNW 23.0 mph 34.5 mph N/A   Clear
1:55 PM 50.0 °F - 8.6 °F 19% 30.27 in 10.0 mi NW 21.9 mph 27.6 mph N/A   Clear
2:15 PM 50.0 °F - 8.6 °F 19% 30.28 in 10.0 mi NW 23.0 mph 28.8 mph N/A   Clear
2:35 PM 50.0 °F - 6.8 °F 17% 30.28 in 10.0 mi NNW 19.6 mph 32.2 mph N/A   Clear
2:55 PM 50.0 °F - 8.6 °F 19% 30.29 in 10.0 mi NW 19.6 mph 27.6 mph N/A   Clear
3:15 PM 50.0 °F - 8.6 °F 19% 30.30 in 10.0 mi NW 18.4 mph 26.5 mph N/A   Clear
3:35 PM 50.0 °F - 5.0 °F 16% 30.30 in 10.0 mi NW 17.3 mph 24.2 mph N/A   Clear
3:55 PM 50.0 °F - 5.0 °F 16% 30.31 in 10.0 mi NNW 16.1 mph 23.0 mph N/A   Clear
4:15 PM 50.0 °F - 5.0 °F 16% 30.32 in 10.0 mi NW 16.1 mph - N/A   Clear
4:35 PM 48.2 °F - 5.0 °F 17% 30.33 in 10.0 mi NW 15.0 mph 23.0 mph N/A   Clear
4:55 PM 46.4 °F 40.1 °F 5.0 °F 18% 30.34 in 10.0 mi NW 15.0 mph 20.7 mph N/A   Clear
5:15 PM 44.6 °F 39.2 °F 6.8 °F 21% 30.34 in 10.0 mi NW 10.4 mph 19.6 mph N/A   Clear
5:35 PM 44.6 °F 38.8 °F 8.6 °F 23% 30.34 in 10.0 mi NW 11.5 mph - N/A   Clear
5:55 PM 42.8 °F 37.0 °F 8.6 °F 25% 30.35 in 10.0 mi NW 10.4 mph - N/A   Clear
6:15 PM 42.8 °F 37.5 °F 8.6 °F 25% 30.35 in 10.0 mi NW 9.2 mph - N/A   Clear
6:35 PM 41.0 °F 36.4 °F 10.4 °F 29% 30.36 in 10.0 mi NW 6.9 mph - N/A   Clear
6:55 PM 41.0 °F 36.4 °F 10.4 °F 29% 30.36 in 10.0 mi NW 6.9 mph - N/A   Clear
7:15 PM 39.2 °F 35.0 °F 10.4 °F 31% 30.37 in 10.0 mi NW 5.8 mph - N/A   Clear
7:35 PM 39.2 °F 35.9 °F 10.4 °F 31% 30.37 in 10.0 mi WNW 4.6 mph - N/A   Clear
7:55 PM 41.0 °F 37.1 °F 10.4 °F 29% 30.37 in 10.0 mi WNW 5.8 mph - N/A   Clear
8:15 PM 41.0 °F 37.1 °F 10.4 °F 29% 30.37 in 10.0 mi NW 5.8 mph - N/A   Clear
8:35 PM 41.0 °F 37.1 °F 10.4 °F 29% 30.37 in 10.0 mi WNW 5.8 mph - N/A   Clear
8:55 PM 41.0 °F 38.0 °F 10.4 °F 29% 30.38 in 10.0 mi WNW 4.6 mph - N/A   Clear
9:15 PM 35.6 °F 32.8 °F 12.2 °F 38% 30.38 in 10.0 mi West 3.5 mph - N/A   Clear
9:35 PM 35.6 °F 31.7 °F 12.2 °F 38% 30.39 in 10.0 mi West 4.6 mph - N/A   Clear
9:55 PM 35.6 °F 30.7 °F 14.0 °F 41% 30.39 in 10.0 mi WNW 5.8 mph - N/A   Clear
10:15 PM 37.4 °F 32.8 °F 14.0 °F 38% 30.40 in 10.0 mi West 5.8 mph - N/A   Clear
10:35 PM 37.4 °F 32.8 °F 15.8 °F 41% 30.40 in 10.0 mi West 5.8 mph - N/A   Clear
10:55 PM 37.4 °F 32.1 °F 15.8 °F 41% 30.40 in 10.0 mi West 6.9 mph - N/A   Clear
11:15 PM 37.4 °F 31.4 °F 14.0 °F 38% 30.40 in 10.0 mi WNW 8.1 mph - N/A   Clear
11:35 PM 37.4 °F 33.8 °F 14.0 °F 38% 30.40 in 10.0 mi WNW 4.6 mph - N/A   Clear
11:55 PM 37.4 °F 33.8 °F 15.8 °F 41% 30.40 in 10.0 mi WNW 4.6 mph - N/A   Clear